| time (UTC) | temp C | wind direction | speed KPH | gust KPH | rain 1hr cm | rain 24hr cm | rain mn cm | humidity % | barometer mb |
| 20260503231204 | 14 | 173 | 1.6 | 4.8 | 0.00 | 0.00 | 0.00 | 81 | 1008.8 |
| 20260503230705 | 14 | 173 | 0.0 | 4.8 | 0.00 | 0.00 | 0.00 | 81 | 1008.8 |
| 20260503230203 | 14 | 173 | 1.6 | 3.2 | 0.00 | 0.00 | 0.00 | 81 | 1008.8 |
| 20260503225707 | 14 | 172 | 0.0 | 4.8 | 0.00 | 0.00 | 0.00 | 80 | 1008.7 |
| 20260503225204 | 14 | 172 | 0.0 | 6.4 | 0.00 | 0.00 | 0.00 | 80 | 1008.7 |
| 20260503224207 | 14 | 173 | 1.6 | 6.4 | 0.00 | 0.00 | 0.00 | 80 | 1008.6 |
| 20260503223204 | 15 | 189 | 0.0 | 4.8 | 0.00 | 0.00 | 0.00 | 80 | 1008.6 |
| 20260503222204 | 15 | 186 | 3.2 | 6.4 | 0.00 | 0.00 | 0.00 | 80 | 1008.4 |
| 20260503221704 | 15 | 195 | 1.6 | 6.4 | 0.00 | 0.00 | 0.00 | 80 | 1008.5 |
| 20260503221204 | 15 | 195 | 0.0 | 6.4 | 0.00 | 0.00 | 0.00 | 79 | 1008.4 |
| 20260503220705 | 15 | 195 | 1.6 | 4.8 | 0.00 | 0.00 | 0.00 | 79 | 1008.5 |
| 20260503220204 | 15 | 193 | 1.6 | 4.8 | 0.00 | 0.00 | 0.00 | 79 | 1008.4 |
| 20260503215705 | 15 | 193 | 1.6 | 4.8 | 0.00 | 0.00 | 0.00 | 78 | 1008.4 |
| 20260503215205 | 15 | 193 | 1.6 | 4.8 | 0.00 | 0.00 | 0.00 | 78 | 1008.4 |
| 20260503214205 | 15 | 193 | 1.6 | 3.2 | 0.00 | 0.00 | 0.00 | 77 | 1008.4 |
| 20260503213704 | 15 | 193 | 0.0 | 3.2 | 0.00 | 0.00 | 0.00 | 77 | 1008.3 |
| 20260503213204 | 15 | 193 | 0.0 | 4.8 | 0.00 | 0.00 | 0.00 | 76 | 1008.3 |
| 20260503212705 | 15 | 193 | 1.6 | 4.8 | 0.00 | 0.00 | 0.00 | 76 | 1008.3 |
| 20260503212205 | 15 | 193 | 1.6 | 6.4 | 0.00 | 0.00 | 0.00 | 75 | 1008.4 |
| 20260503211714 | 15 | 193 | 0.0 | 6.4 | 0.00 | 0.00 | 0.00 | 75 | 1008.3 |
| 20260503211204 | 15 | 193 | 0.0 | 1.6 | 0.00 | 0.00 | 0.00 | 74 | 1008.1 |
| 20260503210704 | 15 | 195 | 0.0 | 3.2 | 0.00 | 0.00 | 0.00 | 74 | 1008.0 |
| 20260503205205 | 15 | 195 | 0.0 | 4.8 | 0.00 | 0.00 | 0.00 | 73 | 1007.9 |
| 20260503204205 | 15 | 195 | 0.0 | 1.6 | 0.00 | 0.00 | 0.00 | 72 | 1007.8 |
| 20260503203705 | 15 | 195 | 0.0 | 1.6 | 0.00 | 0.00 | 0.00 | 71 | 1007.8 |
| 20260503202206 | 16 | 195 | 0.0 | 1.6 | 0.00 | 0.00 | 0.00 | 70 | 1007.7 |
| 20260503201705 | 16 | 195 | 0.0 | 1.6 | 0.00 | 0.00 | 0.00 | 69 | 1007.5 |
| 20260503201205 | 16 | 195 | 0.0 | 3.2 | 0.00 | 0.00 | 0.00 | 69 | 1007.5 |
| 20260503200705 | 16 | 195 | 0.0 | 3.2 | 0.00 | 0.00 | 0.00 | 68 | 1007.4 |
| 20260503200204 | 16 | 195 | 0.0 | 3.2 | 0.00 | 0.00 | 0.00 | 68 | 1007.3 |
| 20260503195704 | 16 | 195 | 0.0 | 3.2 | 0.00 | 0.00 | 0.00 | 68 | 1007.3 |
| 20260503194704 | 16 | 195 | 0.0 | 3.2 | 0.00 | 0.00 | 0.00 | 67 | 1007.2 |
| 20260503194208 | 16 | 195 | 0.0 | 3.2 | 0.00 | 0.00 | 0.00 | 67 | 1007.1 |
| 20260503193704 | 16 | 195 | 0.0 | 3.2 | 0.00 | 0.00 | 0.00 | 66 | 1007.2 |
| 20260503193203 | 16 | 195 | 0.0 | 4.8 | 0.00 | 0.00 | 0.00 | 66 | 1007.2 |
| 20260503192704 | 17 | 195 | 0.0 | 4.8 | 0.00 | 0.00 | 0.00 | 66 | 1007.1 |
| 20260503192204 | 17 | 195 | 0.0 | 4.8 | 0.00 | 0.00 | 0.00 | 65 | 1007.0 |
| 20260503191704 | 17 | 195 | 0.0 | 3.2 | 0.00 | 0.00 | 0.00 | 64 | 1007.0 |
| 20260503191204 | 17 | 195 | 0.0 | 3.2 | 0.00 | 0.00 | 0.00 | 64 | 1007.0 |
| 20260503185704 | 17 | 195 | 0.0 | 1.6 | 0.00 | 0.00 | 0.00 | 64 | 1006.8 |
| 20260503185204 | 17 | 195 | 0.0 | 3.2 | 0.00 | 0.00 | 0.00 | 64 | 1006.7 |
| 20260503184706 | 17 | 195 | 0.0 | 3.2 | 0.00 | 0.00 | 0.00 | 64 | 1006.7 |
| 20260503184204 | 17 | 195 | 0.0 | 3.2 | 0.00 | 0.00 | 0.00 | 64 | 1006.6 |
| 20260503183704 | 17 | 195 | 0.0 | 3.2 | 0.00 | 0.00 | 0.00 | 64 | 1006.6 |
| 20260503183205 | 17 | 195 | 0.0 | 4.8 | 0.00 | 0.00 | 0.00 | 64 | 1006.4 |
| 20260503182704 | 17 | 195 | 0.0 | 4.8 | 0.00 | 0.00 | 0.00 | 63 | 1006.5 |
| 20260503182205 | 18 | 195 | 0.0 | 4.8 | 0.00 | 0.00 | 0.00 | 63 | 1006.3 |
| 20260503181204 | 18 | 195 | 1.6 | 4.8 | 0.00 | 0.00 | 0.00 | 63 | 1006.4 |
| 20260503180705 | 18 | 195 | 1.6 | 4.8 | 0.00 | 0.00 | 0.00 | 63 | 1006.3 |
| 20260503180205 | 18 | 195 | 1.6 | 4.8 | 0.00 | 0.00 | 0.00 | 64 | 1006.2 |
| 20260503175705 | 18 | 196 | 1.6 | 6.4 | 0.00 | 0.00 | 0.00 | 64 | 1006.2 |
| 20260503175204 | 18 | 196 | 1.6 | 6.4 | 0.00 | 0.00 | 0.00 | 64 | 1006.3 |
| 20260503174705 | 18 | 197 | 3.2 | 6.4 | 0.00 | 0.00 | 0.00 | 64 | 1006.2 |
| 20260503174204 | 18 | 173 | 1.6 | 8.0 | 0.00 | 0.00 | 0.00 | 64 | 1006.3 |
| 20260503173704 | 18 | 202 | 1.6 | 8.0 | 0.00 | 0.00 | 0.00 | 63 | 1006.2 |
| 20260503173204 | 18 | 179 | 3.2 | 6.4 | 0.00 | 0.00 | 0.00 | 63 | 1006.3 |
| 20260503172705 | 18 | 137 | 3.2 | 6.4 | 0.00 | 0.03 | 0.00 | 62 | 1006.2 |
| 20260503172205 | 18 | 175 | 1.6 | 6.4 | 0.00 | 0.03 | 0.00 | 62 | 1006.2 |
| 20260503171704 | 18 | 171 | 1.6 | 6.4 | 0.00 | 0.03 | 0.00 | 62 | 1006.2 |
| 20260503171204 | 18 | 245 | 1.6 | 9.7 | 0.00 | 0.03 | 0.00 | 62 | 1006.2 |
| 20260503170704 | 18 | 241 | 1.6 | 9.7 | 0.00 | 0.03 | 0.00 | 62 | 1006.2 |
| 20260503170204 | 18 | 247 | 3.2 | 11.3 | 0.00 | 0.03 | 0.00 | 61 | 1006.2 |
| 20260503160205 | 18 | 243 | 1.6 | 9.7 | 0.00 | 0.03 | 0.00 | 61 | 1006.2 |
| 20260503150704 | 20 | 165 | 3.2 | 16.1 | 0.00 | 0.03 | 0.00 | 59 | 1006.3 |
| 20260503150204 | 20 | 238 | 4.8 | 11.3 | 0.00 | 0.03 | 0.00 | 57 | 1006.3 |
| 20260503130704 | 19 | 261 | 6.4 | 17.7 | 0.00 | 0.03 | 0.00 | 62 | 1006.7 |
| 20260503120204 | 18 | 258 | 4.8 | 14.5 | 0.00 | 0.03 | 0.00 | 66 | 1006.8 |
| 20260503110704 | 18 | 247 | 3.2 | 9.7 | 0.00 | 0.03 | 0.00 | 65 | 1007.0 |
| 20260503110204 | 18 | 224 | 3.2 | 8.0 | 0.00 | 0.03 | 0.00 | 66 | 1007.0 |
| 20260503100204 | 18 | 217 | 3.2 | 9.7 | 0.00 | 0.03 | 0.00 | 67 | 1007.0 |
| 20260503090205 | 15 | 206 | 6.4 | 14.5 | 0.00 | 0.03 | 0.00 | 76 | 1007.3 |
| 20260503081204 | 15 | 245 | 1.6 | 14.5 | 0.00 | 0.03 | 0.00 | 80 | 1007.2 |
| 20260503080704 | 15 | 244 | 3.2 | 14.5 | 0.00 | 0.03 | 0.00 | 80 | 1007.2 |
| 20260503080204 | 15 | 245 | 3.2 | 14.5 | 0.00 | 0.03 | 0.00 | 80 | 1007.2 |
| 20260503072704 | 13 | 216 | 1.6 | 8.0 | 0.00 | 0.03 | 0.00 | 83 | 1007.2 |
| 20260503072204 | 13 | 237 | 1.6 | 8.0 | 0.00 | 0.03 | 0.00 | 83 | 1007.1 |
| 20260503071705 | 13 | 235 | 4.8 | 8.0 | 0.00 | 0.03 | 0.00 | 83 | 1007.0 |
| 20260503071204 | 13 | 233 | 3.2 | 8.0 | 0.00 | 0.03 | 0.00 | 83 | 1007.0 |
| 20260503070705 | 13 | 251 | 3.2 | 8.0 | 0.00 | 0.03 | 0.00 | 83 | 1007.1 |
| 20260503070204 | 13 | 240 | 4.8 | 6.4 | 0.00 | 0.03 | 0.00 | 83 | 1007.1 |
| 20260503060203 | 13 | 183 | 1.6 | 4.8 | 0.00 | 0.03 | 0.00 | 83 | 1006.9 |
| 20260503054705 | 13 | 179 | 1.6 | 4.8 | 0.00 | 0.03 | 0.00 | 83 | 1006.9 |
| 20260503054204 | 13 | 179 | 0.0 | 4.8 | 0.00 | 0.03 | 0.00 | 83 | 1006.9 |
| 20260503053705 | 13 | 179 | 1.6 | 4.8 | 0.00 | 0.03 | 0.00 | 83 | 1006.9 |
| 20260503053204 | 13 | 178 | 0.0 | 3.2 | 0.00 | 0.03 | 0.00 | 83 | 1006.9 |
| 20260503052704 | 13 | 178 | 1.6 | 1.6 | 0.00 | 0.03 | 0.00 | 83 | 1006.9 |
| 20260503052205 | 13 | 178 | 0.0 | 1.6 | 0.00 | 0.03 | 0.00 | 83 | 1006.7 |
| 20260503051204 | 13 | 178 | 0.0 | 1.6 | 0.00 | 0.03 | 0.00 | 83 | 1006.7 |
| 20260503050705 | 13 | 178 | 0.0 | 3.2 | 0.00 | 0.03 | 0.00 | 83 | 1006.7 |
| 20260503050205 | 13 | 178 | 0.0 | 3.2 | 0.00 | 0.03 | 0.00 | 83 | 1006.7 |
| 20260503045705 | 13 | 178 | 0.0 | 3.2 | 0.00 | 0.03 | 0.00 | 83 | 1006.7 |
| 20260503045206 | 13 | 178 | 0.0 | 3.2 | 0.00 | 0.03 | 0.00 | 83 | 1006.7 |
| 20260503044204 | 13 | 178 | 1.6 | 3.2 | 0.00 | 0.03 | 0.00 | 83 | 1006.8 |
| 20260503043704 | 13 | 178 | 0.0 | 3.2 | 0.00 | 0.03 | 0.00 | 83 | 1006.8 |
| 20260503043205 | 13 | 175 | 0.0 | 1.6 | 0.00 | 0.03 | 0.00 | 83 | 1006.8 |
| 20260503042704 | 13 | 175 | 0.0 | 3.2 | 0.00 | 0.03 | 0.00 | 83 | 1006.9 |
| 20260503042205 | 13 | 175 | 0.0 | 3.2 | 0.00 | 0.03 | 0.00 | 83 | 1006.9 |
| 20260503041705 | 13 | 175 | 0.0 | 3.2 | 0.00 | 0.03 | 0.00 | 83 | 1006.9 |
| 20260503041205 | 13 | 175 | 0.0 | 3.2 | 0.00 | 0.03 | 0.00 | 83 | 1007.0 |
| 20260503040705 | 13 | 175 | 0.0 | 3.2 | 0.00 | 0.03 | 0.00 | 83 | 1006.9 |
| 20260503040204 | 13 | 175 | 0.0 | 1.6 | 0.00 | 0.03 | 0.00 | 83 | 1006.9 |
| 20260503035704 | 13 | 175 | 0.0 | 1.6 | 0.00 | 0.03 | 0.00 | 83 | 1006.8 |
| 20260503035205 | 13 | 175 | 0.0 | 1.6 | 0.00 | 0.03 | 0.00 | 83 | 1006.9 |
| 20260503034703 | 13 | 175 | 0.0 | 4.8 | 0.00 | 0.03 | 0.00 | 83 | 1006.9 |
| 20260503034204 | 13 | 175 | 0.0 | 4.8 | 0.00 | 0.03 | 0.00 | 83 | 1007.0 |
| 20260503033704 | 13 | 175 | 0.0 | 4.8 | 0.00 | 0.03 | 0.00 | 83 | 1006.9 |
| 20260503033204 | 13 | 175 | 0.0 | 1.6 | 0.00 | 0.03 | 0.00 | 83 | 1006.8 |
| 20260503032704 | 13 | 175 | 0.0 | 1.6 | 0.00 | 0.03 | 0.00 | 83 | 1006.8 |
| 20260503032205 | 13 | 175 | 0.0 | 3.2 | 0.00 | 0.03 | 0.00 | 83 | 1006.8 |
| 20260503031747 | 13 | 175 | 0.0 | 3.2 | 0.00 | 0.03 | 0.00 | 83 | 1006.9 |
| 20260503031204 | 13 | 175 | 0.0 | 3.2 | 0.00 | 0.03 | 0.00 | 83 | 1006.9 |
| 20260503030704 | 13 | 175 | 0.0 | 3.2 | 0.00 | 0.03 | 0.00 | 83 | 1006.9 |
| 20260503030204 | 13 | 175 | 0.0 | 3.2 | 0.00 | 0.03 | 0.00 | 83 | 1006.9 |
| 20260503025704 | 13 | 175 | 0.0 | 3.2 | 0.00 | 0.03 | 0.00 | 83 | 1007.0 |
| 20260503024205 | 13 | 175 | 0.0 | 3.2 | 0.00 | 0.03 | 0.00 | 83 | 1007.0 |
| 20260503022705 | 13 | 175 | 0.0 | 3.2 | 0.00 | 0.03 | 0.00 | 83 | 1007.0 |
| 20260503021704 | 13 | 175 | 0.0 | 3.2 | 0.00 | 0.03 | 0.00 | 83 | 1007.1 |
| 20260503021204 | 13 | 175 | 1.6 | 3.2 | 0.00 | 0.03 | 0.00 | 83 | 1007.1 |
| 20260503020704 | 13 | 175 | 0.0 | 3.2 | 0.00 | 0.03 | 0.00 | 83 | 1007.2 |
| 20260503015704 | 13 | 175 | 1.6 | 6.4 | 0.00 | 0.03 | 0.00 | 83 | 1007.4 |
| 20260503015204 | 13 | 175 | 1.6 | 6.4 | 0.00 | 0.03 | 0.00 | 83 | 1007.4 |
| 20260503014704 | 13 | 172 | 1.6 | 4.8 | 0.00 | 0.03 | 0.00 | 83 | 1007.3 |
| 20260503014205 | 14 | 197 | 1.6 | 4.8 | 0.00 | 0.03 | 0.00 | 83 | 1007.5 |
| 20260503013204 | 14 | 197 | 0.0 | 6.4 | 0.00 | 0.03 | 0.00 | 82 | 1007.5 |
| 20260503012708 | 14 | 196 | 1.6 | 6.4 | 0.00 | 0.03 | 0.00 | 82 | 1007.5 |
| 20260503012205 | 14 | 196 | 1.6 | 6.4 | 0.00 | 0.03 | 0.00 | 82 | 1007.5 |
| 20260503011704 | 14 | 173 | 1.6 | 4.8 | 0.00 | 0.03 | 0.00 | 82 | 1007.6 |
| 20260503010704 | 14 | 148 | 1.6 | 4.8 | 0.00 | 0.03 | 0.00 | 82 | 1007.8 |
| 20260503005704 | 14 | 172 | 1.6 | 4.8 | 0.00 | 0.03 | 0.00 | 82 | 1007.8 |
| 20260503005204 | 14 | 172 | 0.0 | 4.8 | 0.00 | 0.03 | 0.00 | 82 | 1007.8 |
| 20260503004704 | 14 | 172 | 1.6 | 4.8 | 0.00 | 0.03 | 0.00 | 82 | 1007.8 |
| 20260503004204 | 14 | 175 | 1.6 | 3.2 | 0.00 | 0.03 | 0.00 | 82 | 1007.9 |
| 20260503002705 | 14 | 171 | 0.0 | 6.4 | 0.00 | 0.03 | 0.00 | 82 | 1007.9 |
| 20260503002205 | 14 | 171 | 0.0 | 6.4 | 0.00 | 0.03 | 0.00 | 82 | 1008.0 |
| 20260503001704 | 14 | 176 | 1.6 | 3.2 | 0.00 | 0.03 | 0.00 | 82 | 1008.1 |
| 20260503001207 | 14 | 102 | 0.0 | 3.2 | 0.00 | 0.03 | 0.00 | 82 | 1008.1 |
| 20260503000705 | 14 | 102 | 0.0 | 3.2 | 0.00 | 0.03 | 0.00 | 82 | 1008.1 |
| 20260503000204 | 14 | 102 | 0.0 | 3.2 | 0.00 | 0.03 | 0.00 | 82 | 1008.1 |
| 20260502235204 | 14 | 102 | 1.6 | 3.2 | 0.00 | 0.03 | 0.00 | 82 | 1008.2 |
| 20260502234703 | 14 | 99 | 0.0 | 1.6 | 0.00 | 0.03 | 0.00 | 82 | 1008.1 |
| 20260502234219 | 14 | 99 | 0.0 | 3.2 | 0.00 | 0.03 | 0.00 | 82 | 1008.2 |
| 20260502233704 | 14 | 99 | 0.0 | 3.2 | 0.00 | 0.03 | 0.00 | 82 | 1008.2 |
| 20260502233205 | 14 | 99 | 0.0 | 1.6 | 0.00 | 0.03 | 0.00 | 82 | 1008.3 |
| 20260502232205 | 14 | 97 | 0.0 | 1.6 | 0.00 | 0.03 | 0.00 | 82 | 1008.3 |
| 20260502231705 | 14 | 97 | 0.0 | 1.6 | 0.00 | 0.03 | 0.00 | 82 | 1008.2 |